Tracking 18852 objects as of 24-Nov-2017
HD Live streaming from Space Station
objects crossing your sky now

FENGYUN 1C DEB

Track FENGYUN 1C DEB now!
10-day predictions


NORAD ID: 32431
Int'l Code: 1999-025DAT
Perigee: 791.8 km
Apogee: 898.9 km
Inclination: 99.5 °
Period: 101.7 minutes
Semi major axis: 7216 km
RCS: 0.0041 m2 (small)
Launch date: May 10, 1999
Source: People's Republic of China (PRC)
Launch site: Taiyaun Space Center, China (TSC)

Note: This is SATELLITE DEBRIS
aabbcc
Your satellite tracking list
Your tracking list is empty




NASA's NSSDC Master Catalog

Two Line Element Set (TLE):
1 32431U 99025DAT 17327.02637997  .00001163  00000-0  59612-3 0  9998
2 32431  99.5416 249.6259 0074228  89.8590 329.3569 14.16204586535993
Source of the keplerian elements: AFSPC